contact:dominique.lefevre@mio.osupytheas.fr, maurice.libes@osupytheas.fr, didier.mallarino@osupytheas.fr
Project:EMSO http://www.emso-fr.org/EMSO-France
Depth: 2436.0 m
Title:EMSO Ligure Ouest : Data MII capteur MICROCAT
DateTime_Computer,Latitude,Longitude,Temperature,Conductivity,Pressure,DateTime_Instrument
DateTime_Computer,Latitude,Longitude,degC,S m-1,dbar,DateTime_Instrument
2023-06-15T00:02:19Z,42.805,6.029,13.3021,4.60075,2470.693,2023-6-15T02:04:33Z
2023-06-15T00:05:22Z,42.805,6.029,13.3021,4.60075,2470.73,2023-6-15T02:07:36Z
2023-06-15T00:08:25Z,42.805,6.029,13.3021,4.60075,2470.707,2023-6-15T02:10:39Z
2023-06-15T00:11:28Z,42.805,6.029,13.3021,4.60076,2470.693,2023-6-15T02:13:42Z
2023-06-15T00:14:31Z,42.805,6.029,13.3018,4.60075,2470.707,2023-6-15T02:16:45Z
2023-06-15T00:17:34Z,42.805,6.029,13.3018,4.60075,2470.693,2023-6-15T02:19:48Z
2023-06-15T00:20:37Z,42.805,6.029,13.3019,4.60076,2470.717,2023-6-15T02:22:51Z
2023-06-15T00:23:40Z,42.805,6.029,13.3021,4.60076,2470.707,2023-6-15T02:25:54Z
2023-06-15T00:26:43Z,42.805,6.029,13.3020,4.60075,2470.717,2023-6-15T02:28:58Z
2023-06-15T00:29:46Z,42.805,6.029,13.3020,4.60076,2470.73,2023-6-15T02:32:01Z
2023-06-15T00:32:50Z,42.805,6.029,13.3021,4.60076,2470.684,2023-6-15T02:35:04Z
2023-06-15T00:35:53Z,42.805,6.029,13.3019,4.60077,2470.707,2023-6-15T02:38:07Z
2023-06-15T00:38:56Z,42.805,6.029,13.3019,4.60078,2470.717,2023-6-15T02:41:10Z
2023-06-15T00:41:59Z,42.805,6.029,13.3019,4.60076,2470.707,2023-6-15T02:44:13Z
2023-06-15T00:45:02Z,42.805,6.029,13.3022,4.60077,2470.693,2023-6-15T02:47:16Z
2023-06-15T00:48:05Z,42.805,6.029,13.3025,4.60077,2470.707,2023-6-15T02:50:19Z
2023-06-15T00:51:08Z,42.805,6.029,13.3019,4.60077,2470.717,2023-6-15T02:53:22Z
2023-06-15T00:54:11Z,42.805,6.029,13.3018,4.60076,2470.707,2023-6-15T02:56:25Z
2023-06-15T00:57:14Z,42.805,6.029,13.3019,4.60077,2470.717,2023-6-15T02:59:28Z
2023-06-15T01:00:17Z,42.805,6.029,13.3024,4.60077,2470.693,2023-6-15T03:02:31Z
2023-06-15T01:03:20Z,42.805,6.029,13.3021,4.60077,2470.717,2023-6-15T03:05:34Z
2023-06-15T01:06:23Z,42.805,6.029,13.3018,4.60079,2470.717,2023-6-15T03:08:38Z
2023-06-15T01:09:27Z,42.805,6.029,13.3021,4.60077,2470.73,2023-6-15T03:11:41Z
2023-06-15T01:12:30Z,42.805,6.029,13.3021,4.60078,2470.693,2023-6-15T03:14:44Z
2023-06-15T01:15:33Z,42.805,6.029,13.3019,4.60078,2470.717,2023-6-15T03:17:47Z
2023-06-15T01:18:36Z,42.805,6.029,13.3023,4.60076,2470.717,2023-6-15T03:20:50Z
2023-06-15T01:21:39Z,42.805,6.029,13.3020,4.60077,2470.707,2023-6-15T03:23:53Z
2023-06-15T01:24:42Z,42.805,6.029,13.3019,4.60077,2470.74,2023-6-15T03:26:56Z
2023-06-15T01:27:45Z,42.805,6.029,13.3019,4.60076,2470.777,2023-6-15T03:29:59Z
2023-06-15T01:30:48Z,42.805,6.029,13.3020,4.60077,2470.74,2023-6-15T03:33:02Z
2023-06-15T01:33:51Z,42.805,6.029,13.3018,4.60078,2470.717,2023-6-15T03:36:05Z
2023-06-15T01:36:54Z,42.805,6.029,13.3018,4.60077,2470.74,2023-6-15T03:39:08Z
2023-06-15T01:39:57Z,42.805,6.029,13.3023,4.60076,2470.717,2023-6-15T03:42:11Z
2023-06-15T01:43:00Z,42.805,6.029,13.3023,4.60077,2470.754,2023-6-15T03:45:15Z
2023-06-15T01:46:04Z,42.805,6.029,13.3024,4.60079,2470.754,2023-6-15T03:48:18Z
2023-06-15T01:49:07Z,42.805,6.029,13.3020,4.60077,2470.73,2023-6-15T03:51:21Z
2023-06-15T01:52:10Z,42.805,6.029,13.3024,4.60077,2470.717,2023-6-15T03:54:24Z
2023-06-15T01:55:13Z,42.805,6.029,13.3022,4.60077,2470.74,2023-6-15T03:57:27Z
2023-06-15T01:58:16Z,42.805,6.029,13.3018,4.60081,2470.717,2023-6-15T04:00:30Z
2023-06-15T02:01:19Z,42.805,6.029,13.3021,4.60078,2470.74,2023-6-15T04:03:33Z
2023-06-15T02:04:22Z,42.805,6.029,13.3016,4.60077,2470.74,2023-6-15T04:06:36Z
2023-06-15T02:07:25Z,42.805,6.029,13.3019,4.60078,2470.74,2023-6-15T04:09:39Z
2023-06-15T02:10:28Z,42.805,6.029,13.3018,4.60078,2470.74,2023-6-15T04:12:42Z
2023-06-15T02:13:31Z,42.805,6.029,13.3020,4.60079,2470.717,2023-6-15T04:15:45Z
2023-06-15T02:16:34Z,42.805,6.029,13.3023,4.60079,2470.74,2023-6-15T04:18:48Z
2023-06-15T02:19:37Z,42.805,6.029,13.3021,4.60078,2470.754,2023-6-15T04:21:52Z
2023-06-15T02:22:41Z,42.805,6.029,13.3019,4.60078,2470.74,2023-6-15T04:24:55Z
2023-06-15T02:25:44Z,42.805,6.029,13.3024,4.60079,2470.763,2023-6-15T04:27:58Z
2023-06-15T02:28:47Z,42.805,6.029,13.3023,4.60079,2470.754,2023-6-15T04:31:01Z
2023-06-15T02:31:50Z,42.805,6.029,13.3019,4.60079,2470.763,2023-6-15T04:34:04Z
2023-06-15T02:34:53Z,42.805,6.029,13.3019,4.60080,2470.74,2023-6-15T04:37:07Z
2023-06-15T02:37:56Z,42.805,6.029,13.3023,4.60078,2470.74,2023-6-15T04:40:10Z
2023-06-15T02:40:59Z,42.805,6.029,13.3024,4.60079,2470.717,2023-6-15T04:43:13Z
2023-06-15T02:44:02Z,42.805,6.029,13.3020,4.60079,2470.74,2023-6-15T04:46:16Z
2023-06-15T02:47:05Z,42.805,6.029,13.3019,4.60079,2470.754,2023-6-15T04:49:19Z
2023-06-15T02:50:08Z,42.805,6.029,13.3026,4.60079,2470.777,2023-6-15T04:52:22Z
2023-06-15T02:53:11Z,42.805,6.029,13.3023,4.60081,2470.74,2023-6-15T04:55:25Z
2023-06-15T02:56:14Z,42.805,6.029,13.3023,4.60080,2470.8,2023-6-15T04:58:28Z
2023-06-15T02:59:17Z,42.805,6.029,13.3023,4.60079,2470.777,2023-6-15T05:01:32Z
2023-06-15T03:02:21Z,42.805,6.029,13.3020,4.60080,2470.74,2023-6-15T05:04:35Z
2023-06-15T03:05:24Z,42.805,6.029,13.3024,4.60080,2470.81,2023-6-15T05:07:38Z
2023-06-15T03:08:27Z,42.805,6.029,13.3021,4.60081,2470.763,2023-6-15T05:10:41Z
2023-06-15T03:11:30Z,42.805,6.029,13.3023,4.60081,2470.787,2023-6-15T05:13:44Z
2023-06-15T03:14:33Z,42.805,6.029,13.3022,4.60079,2470.787,2023-6-15T05:16:47Z
2023-06-15T03:17:36Z,42.805,6.029,13.3024,4.60080,2470.777,2023-6-15T05:19:50Z
2023-06-15T03:20:39Z,42.805,6.029,13.3022,4.60081,2470.787,2023-6-15T05:22:53Z
2023-06-15T03:23:42Z,42.805,6.029,13.3024,4.60082,2470.8,2023-6-15T05:25:56Z
2023-06-15T03:26:45Z,42.805,6.029,13.3022,4.60081,2470.81,2023-6-15T05:28:59Z
2023-06-15T03:29:48Z,42.805,6.029,13.3026,4.60080,2470.787,2023-6-15T05:32:02Z
2023-06-15T03:32:51Z,42.805,6.029,13.3023,4.60081,2470.8,2023-6-15T05:35:05Z
2023-06-15T03:35:54Z,42.805,6.029,13.3024,4.60081,2470.787,2023-6-15T05:38:09Z
2023-06-15T03:38:58Z,42.805,6.029,13.3021,4.60081,2470.81,2023-6-15T05:41:12Z
2023-06-15T03:42:01Z,42.805,6.029,13.3025,4.60079,2470.81,2023-6-15T05:44:15Z
2023-06-15T03:45:04Z,42.805,6.029,13.3024,4.60081,2470.787,2023-6-15T05:47:18Z
2023-06-15T03:48:07Z,42.805,6.029,13.3022,4.60082,2470.81,2023-6-15T05:50:21Z
2023-06-15T03:51:10Z,42.805,6.029,13.3026,4.60080,2470.787,2023-6-15T05:53:24Z
2023-06-15T03:54:13Z,42.805,6.029,13.3022,4.60080,2470.824,2023-6-15T05:56:27Z
2023-06-15T03:57:16Z,42.805,6.029,13.3026,4.60081,2470.847,2023-6-15T05:59:30Z
2023-06-15T04:00:19Z,42.805,6.029,13.3024,4.60081,2470.81,2023-6-15T06:02:33Z
2023-06-15T04:03:22Z,42.805,6.029,13.3023,4.60082,2470.8,2023-6-15T06:05:36Z
2023-06-15T04:06:25Z,42.805,6.029,13.3023,4.60081,2470.824,2023-6-15T06:08:39Z
2023-06-15T04:09:28Z,42.805,6.029,13.3020,4.60082,2470.824,2023-6-15T06:11:42Z
2023-06-15T04:12:31Z,42.805,6.029,13.3021,4.60081,2470.81,2023-6-15T06:14:45Z
2023-06-15T04:15:34Z,42.805,6.029,13.3021,4.60080,2470.847,2023-6-15T06:17:49Z
2023-06-15T04:18:38Z,42.805,6.029,13.3026,4.60081,2470.81,2023-6-15T06:20:52Z
2023-06-15T04:21:41Z,42.805,6.029,13.3018,4.60080,2470.8,2023-6-15T06:23:55Z
2023-06-15T04:24:44Z,42.805,6.029,13.3024,4.60081,2470.81,2023-6-15T06:26:58Z
2023-06-15T04:27:47Z,42.805,6.029,13.3020,4.60084,2470.81,2023-6-15T06:30:01Z
2023-06-15T04:30:50Z,42.805,6.029,13.3026,4.60084,2470.81,2023-6-15T06:33:04Z
2023-06-15T04:33:53Z,42.805,6.029,13.3024,4.60080,2470.824,2023-6-15T06:36:07Z
2023-06-15T04:36:56Z,42.805,6.029,13.3024,4.60081,2470.824,2023-6-15T06:39:10Z
2023-06-15T04:39:59Z,42.805,6.029,13.3022,4.60081,2470.847,2023-6-15T06:42:13Z
2023-06-15T04:43:02Z,42.805,6.029,13.3025,4.60081,2470.847,2023-6-15T06:45:16Z
2023-06-15T04:46:05Z,42.805,6.029,13.3021,4.60081,2470.81,2023-6-15T06:48:19Z
2023-06-15T04:49:08Z,42.805,6.029,13.3026,4.60087,2470.81,2023-6-15T06:51:22Z
2023-06-15T04:52:11Z,42.805,6.029,13.3025,4.60081,2470.81,2023-6-15T06:54:26Z
2023-06-15T04:55:15Z,42.805,6.029,13.3023,4.60081,2470.833,2023-6-15T06:57:29Z
2023-06-15T04:58:18Z,42.805,6.029,13.3025,4.60081,2470.847,2023-6-15T07:00:32Z
2023-06-15T05:01:21Z,42.805,6.029,13.3022,4.60081,2470.857,2023-6-15T07:03:35Z
2023-06-15T05:04:24Z,42.805,6.029,13.3025,4.60081,2470.824,2023-6-15T07:06:38Z
2023-06-15T05:07:27Z,42.805,6.029,13.3026,4.60084,2470.81,2023-6-15T07:09:41Z
2023-06-15T05:10:30Z,42.805,6.029,13.3024,4.60083,2470.81,2023-6-15T07:12:44Z
2023-06-15T05:13:33Z,42.805,6.029,13.3021,4.60081,2470.81,2023-6-15T07:15:47Z
2023-06-15T05:16:36Z,42.805,6.029,13.3025,4.60081,2470.824,2023-6-15T07:18:50Z
2023-06-15T05:19:39Z,42.805,6.029,13.3023,4.60081,2470.833,2023-6-15T07:21:53Z
2023-06-15T05:22:42Z,42.805,6.029,13.3028,4.60081,2470.857,2023-6-15T07:24:56Z
2023-06-15T05:25:45Z,42.805,6.029,13.3022,4.60082,2470.81,2023-6-15T07:27:59Z
2023-06-15T05:28:48Z,42.805,6.029,13.3021,4.60082,2470.824,2023-6-15T07:31:03Z
2023-06-15T05:31:52Z,42.805,6.029,13.3024,4.60081,2470.824,2023-6-15T07:34:06Z
2023-06-15T05:34:55Z,42.805,6.029,13.3023,4.60081,2470.81,2023-6-15T07:37:09Z
2023-06-15T05:37:58Z,42.805,6.029,13.3028,4.60081,2470.833,2023-6-15T07:40:12Z
2023-06-15T05:41:01Z,42.805,6.029,13.3024,4.60080,2470.81,2023-6-15T07:43:15Z
2023-06-15T05:44:04Z,42.805,6.029,13.3024,4.60081,2470.787,2023-6-15T07:46:18Z
2023-06-15T05:47:07Z,42.805,6.029,13.3024,4.60081,2470.81,2023-6-15T07:49:21Z
2023-06-15T05:50:10Z,42.805,6.029,13.3024,4.60083,2470.833,2023-6-15T07:52:24Z
2023-06-15T05:53:13Z,42.805,6.029,13.3025,4.60084,2470.833,2023-6-15T07:55:27Z
2023-06-15T05:56:16Z,42.805,6.029,13.3022,4.60084,2470.787,2023-6-15T07:58:30Z
2023-06-15T05:59:19Z,42.805,6.029,13.3023,4.60081,2470.787,2023-6-15T08:01:33Z
2023-06-15T06:02:22Z,42.805,6.029,13.3021,4.60083,2470.8,2023-6-15T08:04:36Z
2023-06-15T06:05:25Z,42.805,6.029,13.3022,4.60084,2470.81,2023-6-15T08:07:40Z
2023-06-15T06:08:29Z,42.805,6.029,13.3026,4.60082,2470.787,2023-6-15T08:10:43Z
2023-06-15T06:11:32Z,42.805,6.029,13.3026,4.60084,2470.81,2023-6-15T08:13:46Z
2023-06-15T06:14:35Z,42.805,6.029,13.3022,4.60081,2470.8,2023-6-15T08:16:49Z
2023-06-15T06:17:38Z,42.805,6.029,13.3024,4.60081,2470.8,2023-6-15T08:19:52Z
2023-06-15T06:20:41Z,42.805,6.029,13.3026,4.60081,2470.787,2023-6-15T08:22:55Z
2023-06-15T06:23:44Z,42.805,6.029,13.3022,4.60082,2470.81,2023-6-15T08:25:58Z
2023-06-15T06:26:47Z,42.805,6.029,13.3021,4.60081,2470.838,2023-6-15T08:29:01Z
2023-06-15T06:29:50Z,42.805,6.029,13.3029,4.60083,2470.787,2023-6-15T08:32:04Z
2023-06-15T06:32:52Z,42.805,6.029,13.3025,4.60082,2470.81,2023-6-15T08:35:06Z
2023-06-15T06:35:55Z,42.805,6.029,13.3023,4.60081,2470.824,2023-6-15T08:38:09Z
2023-06-15T06:38:58Z,42.805,6.029,13.3026,4.60081,2470.8,2023-6-15T08:41:12Z
2023-06-15T06:42:01Z,42.805,6.029,13.3026,4.60084,2470.74,2023-6-15T08:44:15Z
2023-06-15T06:45:04Z,42.805,6.029,13.3027,4.60084,2470.763,2023-6-15T08:47:18Z
2023-06-15T06:48:07Z,42.805,6.029,13.3026,4.60081,2470.81,2023-6-15T08:50:21Z
2023-06-15T06:51:10Z,42.805,6.029,13.3024,4.60084,2470.81,2023-6-15T08:53:24Z
2023-06-15T06:54:13Z,42.805,6.029,13.3024,4.60082,2470.763,2023-6-15T08:56:27Z
2023-06-15T06:57:16Z,42.805,6.029,13.3021,4.60081,2470.763,2023-6-15T08:59:31Z
2023-06-15T07:00:19Z,42.805,6.029,13.3019,4.60081,2470.763,2023-6-15T09:02:34Z
2023-06-15T07:03:23Z,42.805,6.029,13.3024,4.60082,2470.787,2023-6-15T09:05:37Z
2023-06-15T07:06:26Z,42.805,6.029,13.3023,4.60081,2470.787,2023-6-15T09:08:40Z
2023-06-15T07:09:29Z,42.805,6.029,13.3024,4.60081,2470.787,2023-6-15T09:11:43Z
2023-06-15T07:12:32Z,42.805,6.029,13.3026,4.60081,2470.787,2023-6-15T09:14:46Z
2023-06-15T07:15:35Z,42.805,6.029,13.3026,4.60081,2470.787,2023-6-15T09:17:49Z
2023-06-15T07:18:38Z,42.805,6.029,13.3026,4.60081,2470.8,2023-6-15T09:20:52Z
2023-06-15T07:21:41Z,42.805,6.029,13.3029,4.60081,2470.763,2023-6-15T09:23:55Z
2023-06-15T07:24:44Z,42.805,6.029,13.3025,4.60084,2470.763,2023-6-15T09:26:58Z
2023-06-15T07:27:47Z,42.805,6.029,13.3026,4.60082,2470.763,2023-6-15T09:30:01Z
2023-06-15T07:30:50Z,42.805,6.029,13.3026,4.60084,2470.763,2023-6-15T09:33:04Z
2023-06-15T07:33:53Z,42.805,6.029,13.3025,4.60081,2470.763,2023-6-15T09:36:07Z
2023-06-15T07:36:56Z,42.805,6.029,13.3023,4.60084,2470.763,2023-6-15T09:39:11Z
2023-06-15T07:40:00Z,42.805,6.029,13.3026,4.60081,2470.763,2023-6-15T09:42:14Z
2023-06-15T07:43:03Z,42.805,6.029,13.3026,4.60084,2470.763,2023-6-15T09:45:17Z
2023-06-15T07:46:06Z,42.805,6.029,13.3023,4.60084,2470.777,2023-6-15T09:48:20Z
2023-06-15T07:49:09Z,42.805,6.029,13.3021,4.60086,2470.717,2023-6-15T09:51:23Z
2023-06-15T07:52:12Z,42.805,6.029,13.3024,4.60081,2470.74,2023-6-15T09:54:26Z
2023-06-15T07:55:15Z,42.805,6.029,13.3028,4.60081,2470.777,2023-6-15T09:57:29Z
2023-06-15T07:58:18Z,42.805,6.029,13.3024,4.60084,2470.754,2023-6-15T10:00:32Z
2023-06-15T08:01:21Z,42.805,6.029,13.3027,4.60081,2470.763,2023-6-15T10:03:35Z
2023-06-15T08:04:24Z,42.805,6.029,13.3021,4.60082,2470.763,2023-6-15T10:06:38Z
2023-06-15T08:07:27Z,42.805,6.029,13.3026,4.60083,2470.754,2023-6-15T10:09:41Z
2023-06-15T08:10:30Z,42.805,6.029,13.3027,4.60084,2470.74,2023-6-15T10:12:44Z
2023-06-15T08:13:33Z,42.805,6.029,13.3024,4.60082,2470.74,2023-6-15T10:15:48Z
2023-06-15T08:16:37Z,42.805,6.029,13.3024,4.60082,2470.763,2023-6-15T10:18:51Z
2023-06-15T08:19:40Z,42.805,6.029,13.3024,4.60082,2470.717,2023-6-15T10:21:54Z
2023-06-15T08:22:43Z,42.805,6.029,13.3026,4.60084,2470.74,2023-6-15T10:24:57Z
2023-06-15T08:25:46Z,42.805,6.029,13.3028,4.60081,2470.73,2023-6-15T10:28:00Z
2023-06-15T08:28:49Z,42.805,6.029,13.3021,4.60082,2470.73,2023-6-15T10:31:03Z
2023-06-15T08:31:50Z,42.805,6.029,13.3026,4.60081,2470.73,2023-6-15T10:34:05Z
2023-06-15T08:34:53Z,42.805,6.029,13.3026,4.60083,2470.717,2023-6-15T10:37:08Z
2023-06-15T08:37:57Z,42.805,6.029,13.3024,4.60084,2470.73,2023-6-15T10:40:11Z
2023-06-15T08:41:00Z,42.805,6.029,13.3023,4.60081,2470.717,2023-6-15T10:43:14Z
2023-06-15T08:44:03Z,42.805,6.029,13.3028,4.60081,2470.693,2023-6-15T10:46:17Z
2023-06-15T08:47:06Z,42.805,6.029,13.3026,4.60081,2470.73,2023-6-15T10:49:20Z
2023-06-15T08:50:09Z,42.805,6.029,13.3026,4.60084,2470.707,2023-6-15T10:52:23Z
2023-06-15T08:53:12Z,42.805,6.029,13.3024,4.60082,2470.656,2023-6-15T10:55:26Z
2023-06-15T08:56:15Z,42.805,6.029,13.3026,4.60084,2470.73,2023-6-15T10:58:29Z
2023-06-15T08:59:18Z,42.805,6.029,13.3026,4.60084,2470.73,2023-6-15T11:01:32Z
2023-06-15T09:02:21Z,42.805,6.029,13.3021,4.60082,2470.717,2023-6-15T11:04:35Z
2023-06-15T09:05:24Z,42.805,6.029,13.3027,4.60083,2470.707,2023-6-15T11:07:38Z
2023-06-15T09:08:27Z,42.805,6.029,13.3029,4.60081,2470.679,2023-6-15T11:10:42Z
2023-06-15T09:11:30Z,42.805,6.029,13.3021,4.60082,2470.707,2023-6-15T11:13:45Z
2023-06-15T09:14:34Z,42.805,6.029,13.3027,4.60082,2470.73,2023-6-15T11:16:48Z
2023-06-15T09:17:37Z,42.805,6.029,13.3023,4.60081,2470.693,2023-6-15T11:19:51Z
2023-06-15T09:20:40Z,42.805,6.029,13.3024,4.60084,2470.717,2023-6-15T11:22:54Z
2023-06-15T09:23:43Z,42.805,6.029,13.3025,4.60088,2470.67,2023-6-15T11:25:57Z
2023-06-15T09:26:46Z,42.805,6.029,13.3021,4.60084,2470.717,2023-6-15T11:29:00Z
2023-06-15T09:29:49Z,42.805,6.029,13.3024,4.60082,2470.67,2023-6-15T11:32:03Z
2023-06-15T09:32:52Z,42.805,6.029,13.3025,4.60081,2470.67,2023-6-15T11:35:06Z
2023-06-15T09:35:55Z,42.805,6.029,13.3026,4.60081,2470.717,2023-6-15T11:38:09Z
2023-06-15T09:38:58Z,42.805,6.029,13.3021,4.60081,2470.646,2023-6-15T11:41:12Z
2023-06-15T09:42:01Z,42.805,6.029,13.3024,4.60081,2470.661,2023-6-15T11:44:15Z
2023-06-15T09:45:04Z,42.805,6.029,13.3025,4.60081,2470.684,2023-6-15T11:47:19Z
2023-06-15T09:48:08Z,42.805,6.029,13.3024,4.60081,2470.717,2023-6-15T11:50:22Z
2023-06-15T09:51:11Z,42.805,6.029,13.3024,4.60082,2470.693,2023-6-15T11:53:25Z
2023-06-15T09:54:14Z,42.805,6.029,13.3021,4.60082,2470.67,2023-6-15T11:56:28Z
2023-06-15T09:57:17Z,42.805,6.029,13.3024,4.60082,2470.67,2023-6-15T11:59:31Z
2023-06-15T10:00:20Z,42.805,6.029,13.3021,4.60081,2470.684,2023-6-15T12:02:34Z
2023-06-15T10:03:23Z,42.805,6.029,13.3023,4.60082,2470.693,2023-6-15T12:05:37Z
2023-06-15T10:06:26Z,42.805,6.029,13.3023,4.60081,2470.684,2023-6-15T12:08:40Z
2023-06-15T10:09:29Z,42.805,6.029,13.3024,4.60081,2470.684,2023-6-15T12:11:43Z
2023-06-15T10:12:32Z,42.805,6.029,13.3024,4.60082,2470.67,2023-6-15T12:14:46Z
2023-06-15T10:15:35Z,42.805,6.029,13.3021,4.60081,2470.684,2023-6-15T12:17:49Z
2023-06-15T10:18:38Z,42.805,6.029,13.3021,4.60080,2470.67,2023-6-15T12:20:52Z
2023-06-15T10:21:41Z,42.805,6.029,13.3021,4.60080,2470.67,2023-6-15T12:23:56Z
2023-06-15T10:24:45Z,42.805,6.029,13.3026,4.60080,2470.67,2023-6-15T12:26:59Z
2023-06-15T10:27:48Z,42.805,6.029,13.3024,4.60080,2470.67,2023-6-15T12:30:02Z
2023-06-15T10:30:49Z,42.805,6.029,13.3025,4.60081,2470.646,2023-6-15T12:33:03Z
2023-06-15T10:33:52Z,42.805,6.029,13.3026,4.60081,2470.684,2023-6-15T12:36:06Z
2023-06-15T10:36:55Z,42.805,6.029,13.3030,4.60081,2470.646,2023-6-15T12:39:09Z
2023-06-15T10:39:58Z,42.805,6.029,13.3024,4.60082,2470.624,2023-6-15T12:42:12Z
2023-06-15T10:43:01Z,42.805,6.029,13.3022,4.60081,2470.646,2023-6-15T12:45:15Z
2023-06-15T10:46:04Z,42.805,6.029,13.3026,4.60084,2470.67,2023-6-15T12:48:19Z
2023-06-15T10:49:08Z,42.805,6.029,13.3022,4.60081,2470.646,2023-6-15T12:51:22Z
2023-06-15T10:52:11Z,42.805,6.029,13.3027,4.60084,2470.624,2023-6-15T12:54:25Z
2023-06-15T10:55:14Z,42.805,6.029,13.3026,4.60081,2470.661,2023-6-15T12:57:28Z
2023-06-15T10:58:17Z,42.805,6.029,13.3024,4.60082,2470.624,2023-6-15T13:00:31Z
2023-06-15T11:01:20Z,42.805,6.029,13.3024,4.60081,2470.661,2023-6-15T13:03:34Z
2023-06-15T11:04:23Z,42.805,6.029,13.3022,4.60083,2470.67,2023-6-15T13:06:37Z
2023-06-15T11:07:26Z,42.805,6.029,13.3024,4.60082,2470.661,2023-6-15T13:09:40Z
2023-06-15T11:10:29Z,42.805,6.029,13.3028,4.60081,2470.624,2023-6-15T13:12:43Z
2023-06-15T11:13:32Z,42.805,6.029,13.3026,4.60082,2470.661,2023-6-15T13:15:46Z
2023-06-15T11:16:35Z,42.805,6.029,13.3027,4.60084,2470.637,2023-6-15T13:18:49Z
2023-06-15T11:19:38Z,42.805,6.029,13.3028,4.60084,2470.67,2023-6-15T13:21:53Z
2023-06-15T11:22:41Z,42.805,6.029,13.3025,4.60082,2470.646,2023-6-15T13:24:56Z
2023-06-15T11:25:45Z,42.805,6.029,13.3024,4.60081,2470.67,2023-6-15T13:27:59Z
2023-06-15T11:28:48Z,42.805,6.029,13.3027,4.60083,2470.646,2023-6-15T13:31:02Z
2023-06-15T11:31:51Z,42.805,6.029,13.3024,4.60081,2470.67,2023-6-15T13:34:05Z
2023-06-15T11:34:54Z,42.805,6.029,13.3023,4.60085,2470.624,2023-6-15T13:37:08Z
2023-06-15T11:37:57Z,42.805,6.029,13.3029,4.60082,2470.637,2023-6-15T13:40:11Z
2023-06-15T11:41:00Z,42.805,6.029,13.3024,4.60082,2470.637,2023-6-15T13:43:14Z
2023-06-15T11:44:03Z,42.805,6.029,13.3026,4.60082,2470.646,2023-6-15T13:46:17Z
2023-06-15T11:47:06Z,42.805,6.029,13.3024,4.60083,2470.637,2023-6-15T13:49:20Z
2023-06-15T11:50:09Z,42.805,6.029,13.3025,4.60082,2470.684,2023-6-15T13:52:23Z
2023-06-15T11:53:12Z,42.805,6.029,13.3026,4.60083,2470.624,2023-6-15T13:55:26Z
2023-06-15T11:56:15Z,42.805,6.029,13.3024,4.60081,2470.646,2023-6-15T13:58:30Z
2023-06-15T11:59:18Z,42.805,6.029,13.3026,4.60082,2470.646,2023-6-15T14:01:33Z
2023-06-15T12:02:22Z,42.805,6.029,13.3027,4.60081,2470.624,2023-6-15T14:04:36Z
2023-06-15T12:05:25Z,42.805,6.029,13.3024,4.60081,2470.624,2023-6-15T14:07:39Z
2023-06-15T12:08:28Z,42.805,6.029,13.3026,4.60083,2470.624,2023-6-15T14:10:42Z
2023-06-15T12:11:31Z,42.805,6.029,13.3026,4.60081,2470.646,2023-6-15T14:13:45Z
2023-06-15T12:14:34Z,42.805,6.029,13.3024,4.60081,2470.624,2023-6-15T14:16:48Z
2023-06-15T12:17:37Z,42.805,6.029,13.3026,4.60084,2470.646,2023-6-15T14:19:51Z
2023-06-15T12:20:40Z,42.805,6.029,13.3025,4.60084,2470.646,2023-6-15T14:22:54Z
2023-06-15T12:23:43Z,42.805,6.029,13.3019,4.60084,2470.624,2023-6-15T14:25:57Z
2023-06-15T12:26:46Z,42.805,6.029,13.3023,4.60084,2470.661,2023-6-15T14:29:00Z
2023-06-15T12:29:49Z,42.805,6.029,13.3025,4.60084,2470.624,2023-6-15T14:32:03Z
2023-06-15T12:32:52Z,42.805,6.029,13.3028,4.60084,2470.661,2023-6-15T14:35:07Z
2023-06-15T12:35:55Z,42.805,6.029,13.3024,4.60082,2470.646,2023-6-15T14:38:10Z
2023-06-15T12:38:59Z,42.805,6.029,13.3023,4.60081,2470.637,2023-6-15T14:41:13Z
2023-06-15T12:42:02Z,42.805,6.029,13.3024,4.60082,2470.661,2023-6-15T14:44:16Z
2023-06-15T12:45:05Z,42.805,6.029,13.3023,4.60081,2470.591,2023-6-15T14:47:19Z
2023-06-15T12:48:08Z,42.805,6.029,13.3026,4.60081,2470.67,2023-6-15T14:50:22Z
2023-06-15T12:51:11Z,42.805,6.029,13.3023,4.60081,2470.637,2023-6-15T14:53:25Z
2023-06-15T12:54:14Z,42.805,6.029,13.3024,4.60081,2470.646,2023-6-15T14:56:28Z
2023-06-15T12:57:17Z,42.805,6.029,13.3021,4.60081,2470.646,2023-6-15T14:59:31Z
2023-06-15T13:00:20Z,42.805,6.029,13.3029,4.60081,2470.661,2023-6-15T15:02:34Z
2023-06-15T13:03:23Z,42.805,6.029,13.3026,4.60082,2470.646,2023-6-15T15:05:37Z
2023-06-15T13:06:26Z,42.805,6.029,13.3025,4.60081,2470.633,2023-6-15T15:08:40Z
2023-06-15T13:09:29Z,42.805,6.029,13.3024,4.60081,2470.661,2023-6-15T15:11:44Z
2023-06-15T13:12:32Z,42.805,6.029,13.3026,4.60086,2470.661,2023-6-15T15:14:47Z
2023-06-15T13:15:36Z,42.805,6.029,13.3026,4.60081,2470.624,2023-6-15T15:17:50Z
2023-06-15T13:18:39Z,42.805,6.029,13.3028,4.60081,2470.67,2023-6-15T15:20:53Z
2023-06-15T13:21:42Z,42.805,6.029,13.3028,4.60082,2470.646,2023-6-15T15:23:56Z
2023-06-15T13:24:45Z,42.805,6.029,13.3026,4.60082,2470.684,2023-6-15T15:26:59Z
2023-06-15T13:27:48Z,42.805,6.029,13.3024,4.60081,2470.624,2023-6-15T15:30:02Z
2023-06-15T13:30:51Z,42.805,6.029,13.3024,4.60084,2470.624,2023-6-15T15:33:05Z
2023-06-15T13:33:54Z,42.805,6.029,13.3023,4.60081,2470.67,2023-6-15T15:36:08Z
2023-06-15T13:36:57Z,42.805,6.029,13.3025,4.60081,2470.67,2023-6-15T15:39:11Z
2023-06-15T13:40:00Z,42.805,6.029,13.3026,4.60084,2470.646,2023-6-15T15:42:14Z
2023-06-15T13:43:03Z,42.805,6.029,13.3026,4.60082,2470.67,2023-6-15T15:45:17Z
2023-06-15T13:46:06Z,42.805,6.029,13.3026,4.60083,2470.693,2023-6-15T15:48:21Z
2023-06-15T13:49:10Z,42.805,6.029,13.3026,4.60081,2470.684,2023-6-15T15:51:24Z
2023-06-15T13:52:13Z,42.805,6.029,13.3026,4.60082,2470.684,2023-6-15T15:54:27Z
2023-06-15T13:55:16Z,42.805,6.029,13.3024,4.60084,2470.693,2023-6-15T15:57:30Z
2023-06-15T13:58:19Z,42.805,6.029,13.3029,4.60082,2470.707,2023-6-15T16:00:33Z
2023-06-15T14:01:22Z,42.805,6.029,13.3025,4.60081,2470.684,2023-6-15T16:03:36Z
2023-06-15T14:04:25Z,42.805,6.029,13.3022,4.60082,2470.684,2023-6-15T16:06:39Z
2023-06-15T14:07:28Z,42.805,6.029,13.3027,4.60082,2470.67,2023-6-15T16:09:42Z
2023-06-15T14:10:31Z,42.805,6.029,13.3027,4.60082,2470.67,2023-6-15T16:12:45Z
2023-06-15T14:13:34Z,42.805,6.029,13.3025,4.60085,2470.693,2023-6-15T16:15:48Z
2023-06-15T14:16:37Z,42.805,6.029,13.3026,4.60082,2470.693,2023-6-15T16:18:51Z
2023-06-15T14:19:40Z,42.805,6.029,13.3026,4.60087,2470.717,2023-6-15T16:21:54Z
2023-06-15T14:22:43Z,42.805,6.029,13.3025,4.60082,2470.74,2023-6-15T16:24:58Z
2023-06-15T14:25:47Z,42.805,6.029,13.3021,4.60082,2470.693,2023-6-15T16:28:01Z
2023-06-15T14:28:50Z,42.805,6.029,13.3025,4.60084,2470.717,2023-6-15T16:31:04Z
2023-06-15T14:31:52Z,42.805,6.029,13.3023,4.60082,2470.67,2023-6-15T16:34:06Z
2023-06-15T14:34:55Z,42.805,6.029,13.3025,4.60082,2470.67,2023-6-15T16:37:09Z
2023-06-15T14:37:58Z,42.805,6.029,13.3025,4.60082,2470.73,2023-6-15T16:40:12Z
2023-06-15T14:41:01Z,42.805,6.029,13.3028,4.60083,2470.717,2023-6-15T16:43:15Z
2023-06-15T14:44:04Z,42.805,6.029,13.3029,4.60082,2470.693,2023-6-15T16:46:18Z
2023-06-15T14:47:07Z,42.805,6.029,13.3021,4.60084,2470.73,2023-6-15T16:49:21Z
2023-06-15T14:50:10Z,42.805,6.029,13.3026,4.60082,2470.717,2023-6-15T16:52:24Z
2023-06-15T14:53:13Z,42.805,6.029,13.3026,4.60083,2470.74,2023-6-15T16:55:27Z
2023-06-15T14:56:16Z,42.805,6.029,13.3024,4.60084,2470.74,2023-6-15T16:58:31Z
2023-06-15T14:59:19Z,42.805,6.029,13.3026,4.60086,2470.763,2023-6-15T17:01:34Z
2023-06-15T15:02:23Z,42.805,6.029,13.3025,4.60084,2470.717,2023-6-15T17:04:37Z
2023-06-15T15:05:26Z,42.805,6.029,13.3028,4.60082,2470.74,2023-6-15T17:07:40Z
2023-06-15T15:08:29Z,42.805,6.029,13.3027,4.60081,2470.73,2023-6-15T17:10:43Z
2023-06-15T15:11:32Z,42.805,6.029,13.3027,4.60084,2470.73,2023-6-15T17:13:46Z
2023-06-15T15:14:35Z,42.805,6.029,13.3029,4.60085,2470.777,2023-6-15T17:16:49Z